This is the latest recevied weather packets stored in our database for station/object AJ7DN. If no packets are shown the sender has not sent any weather packets the latest 10 day(s).
| Time | Temp. | Humidity | Pressure | Rain* | Wind** | Luminosity | Snow |
|---|---|---|---|---|---|---|---|
| 1777914929 | 14.44° C | 81% | 1018.3 hPa | 0 mm | - | 104 W/m² | - |
| 1777914626 | 14.44° C | 81% | 1018.2 hPa | 0 mm | - | 91 W/m² | - |
| 1777914322 | 14.44° C | 81% | 1018.2 hPa | 0 mm | - | 83 W/m² | - |
| 1777914020 | 14.44° C | 81% | 1017.9 hPa | 0 mm | - | 87 W/m² | - |
| 1777913715 | 14.44° C | 82% | 1017.9 hPa | 0 mm | - | 90 W/m² | - |
| 1777913413 | 13.89° C | 82% | 1017.9 hPa | 0 mm | - | 78 W/m² | - |
| 1777913109 | 13.89° C | 82% | 1018 hPa | 0 mm | - | 81 W/m² | - |
| 1777912805 | 14.44° C | 81% | 1017.9 hPa | 0 mm | - | 85 W/m² | - |
| 1777912501 | 13.89° C | 81% | 1018.1 hPa | 0 mm | - | 91 W/m² | - |
| 1777912198 | 13.89° C | 82% | 1018 hPa | 0 mm | - | 92 W/m² | - |
| 1777911894 | 13.89° C | 83% | 1018.2 hPa | 0 mm | - | 85 W/m² | - |
| 1777911591 | 13.89° C | 83% | 1018.1 hPa | 0 mm | - | 78 W/m² | - |
| 1777911287 | 13.89° C | 83% | 1018 hPa | 0 mm | - | 78 W/m² | - |
| 1777910984 | 13.89° C | 84% | 1018.1 hPa | 0 mm | - | 69 W/m² | - |
| 1777910682 | 13.89° C | 84% | 1018.2 hPa | 0 mm | - | 69 W/m² | - |
| 1777910378 | 13.33° C | 85% | 1018.1 hPa | 0 mm | - | 62 W/m² | - |
| 1777910075 | 13.33° C | 85% | 1018.2 hPa | 0 mm | - | 65 W/m² | - |
| 1777909773 | 13.33° C | 85% | 1018.1 hPa | 0 mm | - | 53 W/m² | - |
| 1777909469 | 13.33° C | 85% | 1018.2 hPa | 0 mm | - | 47 W/m² | - |
| 1777909167 | 13.33° C | 85% | 1018.2 hPa | 0 mm | - | 46 W/m² | - |
| 1777908865 | 13.33° C | 86% | 1018 hPa | 0 mm | - | 46 W/m² | - |
| 1777908561 | 13.33° C | 86% | 1018.2 hPa | 0 mm | - | 44 W/m² | - |
| 1777908258 | 13.33° C | 85% | 1017.8 hPa | 0 mm | - | 46 W/m² | - |
| 1777907955 | 13.33° C | 86% | 1018.1 hPa | 0 mm | - | 47 W/m² | - |
| 1777907650 | 13.33° C | 86% | 1017.9 hPa | 0 mm | - | 40 W/m² | - |
* Rain latest hour (hover to see other rain measurements)
** Current wind speed in m/s (hover to see current wind gust speed)